Regional Weather Roundup
Issued by NWS New Orleans/Baton Rouge, LA

Home | Current Version | Previous Version | Text Only | Print | Product List | Glossary Off
Versions: 1 2 3 4 5 6 7 8 9 10 11 12 13 14 15 16 17 18 19 20 21 22 23 24 25 26 27 28 29 30 31 32 33 34 35 36 37 38 39 40 41 42 43 44 45 46 47 48 49 50

914
ASUS44 KLIX 210001
RWRLIX
NEW ORLEANS REGIONAL WEATHER ROUNDUP
NATIONAL WEATHER SERVICE NEW ORLEANS LA
700 PM CDT SUN APR 20 2014

NOTE: "FAIR" INDICATES FEW OR NO CLOUDS BELOW 12,000 FEET WITH NO
      SIGNIFICANT WEATHER AND/OR OBSTRUCTIONS TO VISIBILITY.
      SKY/WX - SKY CONDITION AND SIGNIFICANT WEATHER.
      TMP - AIR TEMPERATURE.     DP    - DEWPOINT TEMPERATURE.
      RH  - RELATIVE HUMIDITY.   PRES  - PRESSURE.
      HI  - HEAT INDEX.          WCI   - WIND CHILL INDEX.

*  THESE STATIONS ARE NOT NWS OR FAA STATIONS AND ARE NOT UNDER
   NWS QUALITY CONTROL.

LAZ038-040-048-061>063-065>067-069-210100-
SOUTHEAST LOUISIANA

CITY           SKY/WX    TMP DP  RH WIND       PRES   REMARKS
N.O. AUDUBON     N/A     77  61  56 MISG        N/A
6HR MIN TEMP:  77; 6HR MAX TEMP:  85;

N.O. INTL ARPT PTCLDY    78  50  37 N3        30.08F
6HR MIN TEMP:  78; 6HR MAX TEMP:  82;

N.O. LAKEFRONT CLEAR     78  54  43 CALM      30.09S
6HR MIN TEMP:  73; 6HR MAX TEMP:  78;

N.O. DOWNTOWN*   N/A     79  52  38 S6        30.09S
6HR MIN TEMP:  77; 6HR MAX TEMP:  82;

SLIDELL        CLEAR     76  53  44 SW5       30.09R
6HR MIN TEMP:  76; 6HR MAX TEMP:  83;

BATON ROUGE    CLEAR     80  53  39 NE3       30.07F
6HR MIN TEMP:  80; 6HR MAX TEMP:  85;

BOOTHVILLE     CLEAR     66  59  78 E8        30.11F
6HR MIN TEMP:  66; 6HR MAX TEMP:  70;

BELLE CHASSE   CLEAR    N/A N/A N/A S8        30.08F
BOGALUSA*        N/A     80  49  34 E5        30.10S
6HR MIN TEMP:  80; 6HR MAX TEMP:  83;

GALLIANO*      CLEAR     73  62  68 SE5       30.10S
6HR MIN TEMP:  73; 6HR MAX TEMP:  80;

NEW ROADS*     NOT AVBL
GONZALES*        N/A     78  52  40 CALM      30.07F
6HR MIN TEMP:  78; 6HR MAX TEMP:  82;

HAMMOND*       NOT AVBL
HOUMA*         CLEAR     73  61  64 S9        30.09S
PORT FOURCHON* CLEAR     70  61  73 SE6       30.11F

$$

MSZ070-080>082-210100-
SOUTHERN MISSISSIPPI

CITY           SKY/WX    TMP DP  RH WIND       PRES   REMARKS
MCCOMB         CLEAR     77  50  38 SE5       30.09F
6HR MIN TEMP:  77; 6HR MAX TEMP:  82;

GULFPORT       CLEAR     69  57  65 SE8       30.11S
6HR MIN TEMP:  69; 6HR MAX TEMP:  82;

BILOXI         NOT AVBL
PASCAGOULA     CLEAR     66  58  75 SW7       30.11S
6HR MIN TEMP:  66; 6HR MAX TEMP:  80;

STENNIS ARPT*  CLEAR     70  59  68 SE8       30.11R

$$

COASTAL OBSERVATIONS
LAKE AND NEARSHORE STATIONS

STATION/POSITION TIME  TEMP    WIND        PRES    WAVE
                       AIR SEA DIR/SP/G            HT/PER
                 (UTC) (F)     (DEG/KT/KT) (MB)    (FT/S)
PASCAGOULA       2300   67     150/  7/ 12 1019.0
WAVELAND YACHT   2300   66 70  150/ 10/ 12 1018.8
GRAND ISLE       2300   70 68  150/  5/  7 1019.8
SOUTHWEST PASS   2300   71 60   90/  8/  9 1019.7
NEW CANAL        2300   78 69  330/  1/  2 1019.2
SHELL BEACH      2300   70 68  140/  9/ 10 1019.1

OFFSHORE STATIONS

STATION/POSITION TIME  TEMP    WIND        PRES    WAVE
                       AIR SEA DIR/SP/G            HT/PER
                 (UTC) (F)     (DEG/KT/KT) (MB)    (FT/S)
64 S DAUPHIN ISL 2247   63 71   60/ 12/ 16 1020.1

$$




USA.gov is the U.S. government's official web portal to all federal, state and local government web resources and services.